Dewpoint
35 35 36 36 36 36 36 36 37 38 38 38 38 39 39 39 39 39 40 41 43 44 44 45 46 47 48 48 49 49 50 51 51 51 52 53 54 54 55 56 56 56 56 56 56 56 57 57 57 57 57 56 56 55 55 55 55 56 56 57 57 58 58 59 60 61 62 62 62
34 35 36 36 36 36 36 35 36 36 37 37 37 38 38 38 39 39 39 40 42 43 44 44 45 46 46 46 47 49 49 50 50 51 51 52 53 54 54 55 55 56 56 56 56 56 56 56 56 56 56 55 55 54 54 54 54 54 54 54 55 56 57 58 58 59 60 61 62
35 36 36 36 36 35 35 35 35 35 35 36 37 37 38 38 39 39 39 40 41 42 42 43 44 44 44 44 46 48 49 50 50 50 51 52 53 53 53 53 54 55 55 55 55 55 55 55 55 55 55 54 54 53 53 53 53 53 53 53 53 54 54 55 55 56 56 58 59
35 35 35 35 35 35 35 35 35 35 35 35 36 37 38 38 39 39 40 40 40 41 41 43 43 44 44 44 45 47 49 50 50 50 51 51 53 53 53 53 53 54 54 55 54 54 54 54 54 54 54 53 53 53 53 53 52 52 52 53 53 53 53 53 53 53 53 54 56
35 35 35 35 35 35 35 35 35 35 35 35 36 36 37 38 39 39 40 40 40 40 41 42 42 43 43 44 44 46 48 49 50 50 50 51 52 53 52 52 52 53 53 54 54 54 54 53 53 53 53 53 53 52 52 52 51 51 51 52 52 52 52 52 52 52 52 52 53
35 35 35 35 35 35 35 35 35 35 35 35 36 36 36 36 37 38 38 39 39 40 40 41 42 43 43 44 44 46 48 49 49 49 50 50 51 52 52 52 51 51 52 53 53 53 53 53 53 53 53 52 52 52 51 51 51 51 50 50 51 51 51 51 51 51 51 50 51
34 34 34 35 35 35 35 35 35 35 36 36 36 36 36 36 37 37 38 38 39 40 40 41 42 42 43 43 44 46 47 48 49 49 49 50 50 51 51 51 50 50 51 52 52 53 53 53 53 52 52 52 51 51 51 51 50 50 50 49 50 50 50 49 50 50 49 49 49
34 34 35 35 34 34 35 35 35 36 36 36 36 36 35 36 36 37 37 38 39 40 40 41 42 42 42 43 44 45 47 48 48 49 49 49 50 50 51 50 50 49 50 50 51 52 52 52 52 52 51 51 51 50 50 50 50 49 49 49 49 49 49 49 49 49 49 48 48
34 35 35 35 35 35 35 35 35 36 36 36 36 36 35 36 36 37 38 39 40 41 41 42 42 42 42 43 44 45 46 47 48 48 49 49 49 50 50 49 49 49 49 50 50 51 51 51 51 51 51 50 50 50 49 49 49 49 48 48 48 48 48 48 48 48 48 48 47
34 34 34 35 35 35 35 36 36 36 36 36 36 36 36 37 38 39 40 40 41 42 43 43 42 42 42 43 44 45 46 47 47 48 48 49 49 49 49 49 48 48 48 49 49 50 50 50 50 50 50 50 49 49 49 49 49 48 48 48 48 47 47 48 48 48 48 48 47
34 34 35 35 35 36 37 37 37 37 37 37 37 37 37 38 39 40 40 41 42 43 43 44 43 43 42 43 44 45 46 46 47 47 48 48 49 49 49 48 47 46 46 47 48 48 49 49 48 48 49 49 49 49 49 48 48 48 47 47 47 47 47 47 47 47 47 47 47
34 34 35 35 36 36 37 37 37 37 37 37 37 38 38 39 40 40 41 42 43 44 44 44 44 44 43 43 44 45 46 46 47 47 47 48 49 49 48 47 46 45 45 45 45 46 46 46 46 46 46 46 47 47 47 47 47 47 47 46 46 46 46 46 46 46 46 46 46
34 35 35 35 36 36 36 36 37 37 37 38 38 39 40 40 41 42 42 43 43 43 44 44 45 45 44 44 45 46 46 46 46 47 47 47 48 48 48 47 46 45 44 44 44 44 44 44 44 44 44 44 45 45 46 46 46 46 46 46 45 45 45 45 45 45 45 45 45
34 35 35 35 35 35 36 36 37 37 38 38 39 40 40 40 41 42 42 42 42 42 43 44 44 45 45 45 46 46 46 46 46 46 46 47 47 48 48 47 46 45 44 44 43 42 42 42 43 43 43 43 43 44 44 44 45 45 45 45 44 44 44 44 44 44 44 44 44
34 34 34 34 35 35 36 37 38 38 38 38 39 39 39 39 40 40 41 41 41 42 43 43 44 44 45 45 46 46 46 46 46 46 46 46 47 47 47 47 46 45 44 44 43 42 41 41 41 41 41 41 41 41 42 42 43 44 44 44 44 43 43 43 42 42 42 42 42
33 32 32 33 34 35 36 37 38 38 38 38 38 39 39 38 39 40 40 40 41 42 42 42 43 43 44 45 45 45 45 45 46 46 46 46 46 46 46 46 45 44 44 43 42 41 41 40 40 40 40 40 40 40 40 40 41 41 42 42 42 42 42 42 41 41 40 40 40
31 30 31 32 34 35 36 36 36 37 37 37 38 38 38 38 39 39 40 40 40 41 41 41 42 43 44 44 44 45 45 45 45 45 45 45 45 45 46 46 45 44 44 43 42 41 40 40 40 39 39 38 38 38 38 38 39 39 40 40 40 41 41 41 40 40 40 40 40
29 29 30 31 33 34 35 35 35 35 36 36 37 37 38 38 38 39 39 40 40 40 40 40 40 42 43 43 44 44 44 44 44 44 44 44 45 45 45 45 45 44 43 42 41 40 40 40 39 38 37 37 37 37 37 37 37 37 38 39 39 40 40 40 40 40 40 39 39
29 29 30 31 31 32 34 35 35 35 36 36 37 37 38 38 38 38 39 39 40 39 39 38 40 41 42 42 43 44 44 44 44 44 44 44 44 44 44 45 45 44 44 42 41 41 40 39 39 38 37 36 36 36 36 36 36 36 36 37 38 39 39 40 40 40 39 39 38
29 29 30 30 31 32 33 35 35 35 36 37 37 37 38 38 38 38 38 38 39 39 38 38 39 40 41 42 42 43 43 44 44 44 44 44 44 44 44 44 44 44 44 43 42 41 40 40 39 38 37 36 36 36 36 36 35 35 35 36 37 38 39 39 39 39 39 39 38
28 29 29 30 31 32 33 34 35 36 36 37 37 37 37 37 37 38 38 38 39 39 39 39 39 40 40 41 41 41 42 43 43 44 44 44 44 44 44 44 44 44 44 43 43 42 41 40 40 39 38 37 36 36 36 36 36 36 36 37 37 38 39 39 40 40 40 40 39
27 28 29 31 32 34 35 34 35 36 37 37 37 37 37 37 37 37 38 38 39 39 39 39 39 40 40 40 40 41 41 42 43 43 43 44 44 44 44 44 44 44 44 43 43 42 41 41 40 39 38 37 37 37 37 37 37 37 36 37 37 37 38 39 39 40 40 40 40
26 27 29 31 33 35 35 35 35 35 36 36 36 36 36 36 37 37 38 38 39 39 39 39 39 40 40 40 40 41 41 42 42 42 43 43 43 43 43 43 43 43 43 43 42 42 41 40 40 39 38 37 37 37 37 37 37 37 36 36 36 36 37 38 39 39 40 40 41
26 27 28 30 33 35 35 35 35 35 36 36 36 36 36 36 37 37 38 38 38 38 39 39 39 39 40 40 40 41 41 41 41 41 42 42 42 42 43 43 43 42 42 42 42 42 42 41 40 39 38 37 37 37 37 37 37 37 36 35 35 36 36 37 37 38 39 40 40
26 28 30 31 34 35 35 35 35 35 35 35 36 36 36 37 37 37 38 38 38 38 38 39 39 39 40 40 40 40 41 41 41 41 41 41 42 42 42 42 42 42 43 43 43 43 42 42 40 39 38 37 37 37 37 37 37 36 36 36 36 36 35 36 36 36 37 37 38
27 28 30 31 33 35 35 35 35 35 35 35 36 36 36 37 37 37 37 38 38 38 38 39 39 40 40 40 40 40 40 41 41 41 41 41 41 41 42 42 42 43 43 44 44 43 43 42 41 40 38 37 36 36 36 36 36 36 36 36 35 35 35 35 35 35 35 35 35
29 29 30 31 33 34 34 35 35 35 35 35 35 36 36 37 37 37 37 37 38 38 38 39 39 40 40 40 40 40 40 40 40 41 41 41 41 41 42 42 42 43 44 44 44 44 44 43 41 40 39 37 37 36 36 35 35 35 35 35 35 35 35 34 34 34 34 34 34
31 30 30 31 33 34 34 35 35 35 35 35 35 36 37 37 37 37 37 37 38 38 38 38 39 40 40 40 40 40 40 40 40 40 41 41 41 42 42 42 43 44 44 45 44 44 44 43 42 40 40 38 37 35 35 35 34 34 34 34 34 34 34 34 34 34 33 33 32
32 31 30 31 33 34 34 34 34 34 35 35 35 36 37 37 37 37 37 37 37 38 38 38 39 39 39 39 40 40 40 40 40 40 41 41 41 42 42 43 43 44 45 45 45 44 43 43 41 40 40 39 37 36 35 34 34 33 33 33 33 33 34 34 33 33 32 32 31
32 31 31 31 33 34 34 34 34 34 35 35 35 36 36 36 36 37 37 37 37 38 38 38 38 39 39 39 39 40 40 40 40 40 41 41 41 42 42 43 44 44 45 45 44 44 43 42 41 40 40 39 38 37 35 35 34 34 34 34 33 33 33 33 33 32 32 31 31
32 32 32 31 33 33 33 34 34 34 35 35 35 35 35 36 36 36 36 37 37 38 38 38 38 38 38 38 39 39 39 40 40 40 41 41 42 42 42 43 44 44 45 45 44 44 43 42 41 40 39 39 38 37 36 35 35 35 35 34 34 33 33 32 32 31 31 31 31
32 33 33 32 32 32 33 34 34 34 34 34 34 34 35 35 35 36 36 37 37 37 37 37 37 38 38 38 38 39 39 39 40 40 40 41 41 41 42 43 43 44 45 45 44 44 43 42 41 40 40 39 38 37 36 35 35 35 35 34 33 33 32 31 31 30 30 29 29
32 32 32 32 32 32 33 34 34 34 34 34 34 34 34 35 35 35 36 36 36 36 36 37 37 37 37 37 38 38 39 39 40 40 40 40 41 41 41 42 43 44 45 44 44 44 43 42 41 41 40 39 38 37 36 35 35 35 34 33 33 33 32 31 31 29 28 28 28
32 32 32 31 32 32 33 33 34 34 34 34 33 33 33 34 34 35 35 36 36 36 36 36 36 37 37 37 37 38 38 39 39 39 39 40 40 40 40 41 42 44 44 44 44 43 43 42 42 41 40 39 38 36 35 35 34 34 34 34 33 33 33 32 31 30 29 29 28
31 31 31 31 31 31 32 33 33 34 34 33 33 33 33 34 34 35 35 36 35 35 35 36 36 36 36 37 37 37 37 38 38 38 39 39 40 40 40 40 41 43 44 44 43 43 42 42 41 40 39 38 37 35 35 34 34 34 34 34 33 33 33 33 32 32 31 31 31
31 31 31 31 31 31 31 32 33 33 33 33 33 33 33 34 34 34 35 35 35 35 35 35 35 35 36 36 36 37 37 37 37 38 38 39 39 39 39 40 40 42 43 43 42 42 41 41 40 39 38 37 36 35 35 34 34 34 34 34 34 34 34 34 34 34 34 33 33
31 31 31 30 30 30 31 31 32 33 33 33 33 33 33 33 33 34 34 35 34 34 34 34 35 35 35 35 35 36 36 37 37 37 38 38 38 38 38 38 39 40 41 42 41 41 40 40 39 38 37 36 35 35 35 34 34 34 34 34 34 34 34 34 34 34 34 34 34
31 31 31 30 30 31 31 31 32 32 33 33 33 33 33 33 33 33 34 34 34 34 34 34 34 34 35 35 35 35 36 36 37 37 37 37 37 37 37 37 38 39 40 41 41 40 40 40 39 38 37 35 35 35 34 34 34 34 34 34 34 34 34 35 35 35 35 35 35
32 32 31 31 31 31 31 31 32 32 33 33 33 33 33 33 33 33 33 34 33 33 33 34 34 34 34 35 35 35 35 35 36 36 36 36 37 37 37 37 37 39 40 40 40 40 40 39 38 37 36 35 35 34 34 34 33 33 33 33 34 34 34 34 35 35 35 36 36
31 32 31 31 31 31 31 32 32 33 33 33 33 32 32 32 33 33 33 33 33 33 33 33 33 34 35 35 35 34 34 34 35 35 36 36 37 37 37 36 37 38 39 40 40 40 39 39 38 37 36 35 34 34 34 34 33 33 33 33 33 34 34 34 35 35 35 35 36
30 31 31 32 32 32 32 32 33 33 33 33 33 32 32 33 32 32 32 31 32 32 32 32 33 33 34 35 34 34 33 33 34 34 35 35 36 36 37 36 36 37 38 39 39 39 39 39 38 37 36 35 34 34 34 34 33 33 32 33 33 33 34 34 34 34 35 35 35